Location: Forli
(44.2227°N, 12.0407°E)
Time: 02:42:47
(UTC+02:00)

DX 1 - Pass Details

Date: 13 April 2026
Orbit: 593 x 604 km, 98.4° (Epoch: 19 May)

Event Time Altitude Azimuth Distance (km) Brightness Sun altitude
Rises 04:28:13 0° 11° (N) 2,843 ? -20.8°
Reaches altitude 10° 04:30:24 10° 8° (N) 1,936 ? -20.5°
Maximum altitude 04:34:34 68° 286° (WNW) 644 ? -19.9°
Enters shadow 04:35:26 51° 228° (SW) 749 ? -19.8°
